FW0288 Weather Reports


time (UTC)temp
F
wind
direction
speed
knots
gust
knots
rain 1hr
in
rain 24hr
in
rain mn
in
humidity
%
barometer
mb
20220927014526 66 229 0.0 1.7 0.00 0.00 0.00 39 1014.7
20220927013017 68 145 0.0 2.6 0.00 0.00 0.00 38 1014.7
20220927011515 70 94 0.0 2.6 0.00 0.00 0.00 37 1014.5
20220927010016 72 71 0.9 1.7 0.00 0.00 0.00 35 1014.4
20220927004513 73 71 0.0 0.0 0.00 0.00 0.00 34 1014.4
20220927003048 75 71 0.0 0.0 0.00 0.00 0.00 30 1014.4
20220927001513 76 71 0.0 0.0 0.00 0.00 0.00 26 1014.4
20220927000015 76 71 0.0 1.7 0.00 0.00 0.00 26 1014.4
20220926234511 77 71 0.0 2.6 0.00 0.00 0.00 27 1014.4
20220926233011 77 65 0.9 2.6 0.00 0.00 0.00 29 1014.3
20220926231511 77 86 0.9 3.5 0.00 0.00 0.00 27 1014.2
20220926230016 77 73 0.0 6.1 0.00 0.00 0.00 26 1014.4
20220926224509 80 62 1.7 3.5 0.00 0.00 0.00 23 1014.4
20220926223013 78 59 1.7 4.3 0.00 0.00 0.00 25 1014.3
20220926221507 79 134 0.9 2.6 0.00 0.00 0.00 25 1014.5
20220926220006 78 84 0.0 5.2 0.00 0.00 0.00 25 1014.6
20220926214516 78 57 0.9 7.8 0.00 0.00 0.00 25 1014.8
20220926213007 80 53 0.0 0.9 0.00 0.00 0.00 24 1014.9
20220926211502 78 106 0.0 3.5 0.00 0.00 0.00 27 1015.0
20220926210059 77 73 0.0 7.0 0.00 0.00 0.00 27 1015.3
20220926204600 76 49 3.5 8.7 0.00 0.00 0.00 27 1015.5
20220926203118 76 113 0.9 8.7 0.00 0.00 0.00 25 1015.6
20220926201603 78 27 0.9 5.2 0.00 0.00 0.00 23 1015.7
20220926200109 78 12 2.6 5.2 0.00 0.00 0.00 25 1015.8
20220926194552 76 65 2.6 8.7 0.00 0.00 0.00 30 1016.1
20220926193141 76 103 2.6 8.7 0.00 0.00 0.00 30 1016.3
20220926191556 77 13 0.9 9.6 0.00 0.00 0.00 26 1016.4
20220926190052 76 61 2.6 9.6 0.00 0.00 0.00 33 1016.6
20220926184544 77 11 4.3 8.7 0.00 0.00 0.00 26 1016.7
20220926183042 75 61 7.8 10.4 0.00 0.00 0.00 30 1016.9
20220926181541 74 105 6.1 9.6 0.00 0.00 0.00 34 1016.9
20220926180038 75 59 4.3 8.7 0.00 0.00 0.00 30 1017.1
20220926174537 74 70 5.2 9.6 0.00 0.00 0.00 30 1017.1
20220926173030 74 42 4.3 10.4 0.00 0.00 0.00 28 1017.2
20220926171527 74 57 4.3 7.8 0.00 0.00 0.00 32 1017.3
20220926170024 74 55 3.5 7.0 0.00 0.00 0.00 28 1017.4
20220926164519 74 40 1.7 4.3 0.00 0.00 0.00 32 1017.5
20220926163031 73 64 0.9 3.5 0.00 0.00 0.00 35 1017.5
20220926161518 70 57 1.7 4.3 0.00 0.00 0.00 39 1017.5
20220926160006 70 53 1.7 3.5 0.00 0.00 0.00 39 1017.6
20220926154503 69 49 0.9 4.3 0.00 0.00 0.00 44 1017.6
20220926153122 68 80 0.9 2.6 0.00 0.00 0.00 43 1017.6
20220926151604 67 104 0.9 3.5 0.00 0.00 0.00 48 1017.5
20220926150049 65 207 0.9 2.6 0.00 0.00 0.00 50 1017.5
20220926144547 63 208 0.0 1.7 0.00 0.00 0.00 53 1017.5
20220926143040 61 208 0.0 0.9 0.00 0.00 0.00 54 1017.6
20220926141536 58 208 0.0 0.9 0.00 0.00 0.00 64 1017.7
20220926140031 54 208 0.0 0.0 0.00 0.00 0.00 66 1017.8
20220926134528 50 208 0.0 2.6 0.00 0.00 0.00 70 1017.7
20220926133026 48 208 0.9 2.6 0.00 0.00 0.00 71 1017.6
20220926131523 46 208 0.0 1.7 0.00 0.00 0.00 73 1017.6
20220926130021 46 208 0.0 0.9 0.00 0.00 0.00 73 1017.6
20220926124522 46 208 0.0 2.6 0.00 0.00 0.00 73 1017.5
20220926123023 46 206 0.0 2.6 0.00 0.00 0.00 73 1017.5
20220926121516 47 206 0.0 2.6 0.00 0.00 0.00 71 1017.7
20220926120017 47 206 0.9 2.6 0.00 0.00 0.00 71 1017.7
20220926114511 48 205 0.9 1.7 0.00 0.00 0.00 68 1017.8
20220926113009 49 205 0.0 0.9 0.00 0.00 0.00 65 1017.7
20220926111506 50 205 0.0 2.6 0.00 0.00 0.00 64 1017.7
20220926110004 50 236 0.0 2.6 0.00 0.00 0.00 62 1017.8
20220926104509 51 230 0.0 3.5 0.00 0.00 0.00 60 1017.6
20220926103104 51 225 0.0 2.6 0.00 0.00 0.00 60 1017.6
20220926101600 52 223 0.0 2.6 0.00 0.00 0.00 59 1017.5
20220926100058 52 255 0.9 2.6 0.00 0.00 0.00 57 1017.4
20220926094612 53 221 0.9 2.6 0.00 0.00 0.00 55 1017.4
20220926093058 53 208 1.7 4.3 0.00 0.00 0.00 56 1017.4
20220926091602 52 216 0.9 2.6 0.00 0.00 0.00 57 1017.6
20220926090112 52 223 1.7 4.3 0.00 0.00 0.00 57 1017.6
20220926084553 52 230 0.9 2.6 0.00 0.00 0.00 58 1017.8
20220926083109 52 239 0.0 1.7 0.00 0.00 0.00 59 1018.1
20220926081601 52 234 1.7 2.6 0.00 0.00 0.00 58 1018.2
20220926080102 52 232 0.0 1.7 0.00 0.00 0.00 60 1018.2
20220926074547 51 234 0.0 3.5 0.00 0.00 0.00 62 1018.4
20220926073103 51 227 0.0 0.9 0.00 0.00 0.00 62 1018.4
20220926071603 52 227 0.0 1.7 0.00 0.00 0.00 61 1018.4
20220926070044 53 227 0.0 1.7 0.00 0.00 0.00 59 1018.4
20220926064542 53 222 0.9 2.6 0.00 0.00 0.00 59 1018.6
20220926063040 52 226 0.0 1.7 0.00 0.00 0.00 60 1018.8
20220926061538 53 227 0.0 2.6 0.00 0.00 0.00 59 1018.9
20220926060139 53 226 0.0 1.7 0.00 0.00 0.00 59 1018.7
20220926054536 53 196 0.9 3.5 0.00 0.00 0.00 59 1018.7
20220926053034 53 224 0.9 3.5 0.00 0.00 0.00 60 1018.7
20220926051558 53 221 0.0 3.5 0.00 0.00 0.00 59 1018.8
20220926050038 54 210 0.0 1.7 0.00 0.00 0.00 58 1018.7
20220926044551 54 208 0.0 1.7 0.00 0.00 0.00 57 1018.7
20220926043036 54 217 0.0 2.6 0.00 0.00 0.00 57 1018.8
20220926041540 54 217 0.0 0.9 0.00 0.00 0.00 56 1018.7
20220926040112 55 217 0.0 1.7 0.00 0.00 0.00 56 1018.7
20220926034601 55 217 0.0 1.7 0.00 0.00 0.00 55 1018.5
20220926033031 56 211 0.0 1.7 0.00 0.00 0.00 55 1018.5
20220926031535 56 209 0.0 2.6 0.00 0.00 0.00 54 1018.4
20220926030030 57 211 0.9 2.6 0.00 0.00 0.00 54 1018.3
20220926024532 57 216 0.0 3.5 0.00 0.00 0.00 53 1018.2
20220926023053 58 211 0.0 2.6 0.00 0.00 0.00 54 1017.9
20220926021537 59 211 0.0 2.6 0.00 0.00 0.00 53 1017.8
20220926020029 60 278 0.0 0.9 0.00 0.00 0.00 51 1017.7